Wind_Speed
39 40 40 41 41 41 41 40 40 40 40 40 40 39 38 38 39 39 39 40 40 40 41 41 42 42 42 43 43 43 43 43 43 42 42 43 44 45 44 44 45 45 46
39 40 39 39 39 39 39 40 40 40 39 39 38 37 37 37 37 38 38 38 39 39 40 41 41 42 42 42 42 42 42 41 41 41 41 41 42 43 44 44 44 45 45
37 38 38 37 37 37 37 39 39 39 38 38 38 38 36 36 36 36 36 37 37 37 38 39 39 39 39 40 40 40 41 41 40 40 40 40 41 42 44 44 45 45 46
35 35 35 35 35 35 36 36 37 37 38 38 37 37 36 35 34 34 34 34 35 35 35 36 36 36 36 37 38 38 39 39 40 39 39 39 41 41 42 44 44 44 44
34 34 34 34 34 34 35 35 36 36 35 36 36 36 35 34 33 33 33 33 33 34 34 33 33 34 34 35 36 37 37 37 37 38 38 39 39 39 40 42 43 42 42
34 34 34 34 34 33 34 34 34 34 34 35 34 34 33 33 33 32 32 31 32 32 32 32 32 32 32 33 34 34 34 34 35 35 35 36 36 37 38 39 40 39 38
32 33 33 33 33 33 33 32 32 32 32 32 31 31 31 31 31 30 31 31 31 31 32 32 32 32 31 31 32 31 31 31 32 33 33 33 33 33 33 34 35 35 35
31 31 31 31 31 31 30 30 30 30 29 29 29 29 29 29 29 29 29 30 31 30 30 31 30 31 31 31 30 29 29 29 30 30 30 30 30 30 31 31 33 33 33
29 29 29 29 29 28 28 28 28 28 28 28 28 28 28 28 28 28 29 29 30 29 29 29 29 30 30 29 29 28 28 28 28 27 26 27 28 29 30 31 31 32 32
27 28 28 28 27 27 26 26 26 27 27 27 27 27 27 27 28 28 29 29 29 29 29 29 29 28 28 28 28 27 26 26 26 26 25 26 27 28 28 29 29 30 30
25 25 26 26 26 26 26 25 26 25 25 25 25 25 25 26 26 26 27 27 28 28 28 28 27 26 25 25 25 25 25 25 25 25 25 25 26 26 27 27 27 27 27
23 24 24 24 24 24 23 24 24 24 24 24 24 24 25 25 25 26 26 26 26 27 26 25 25 24 24 24 24 24 24 24 24 24 24 24 25 25 25 26 26 26 25
22 22 23 22 22 22 22 22 22 22 22 22 22 23 24 24 25 26 27 26 26 26 25 24 23 22 22 22 22 22 22 22 23 23 23 23 23 23 23 24 23 23 22
22 21 21 21 21 21 21 21 21 21 21 21 21 22 22 23 23 23 24 24 24 23 23 22 22 21 21 21 20 20 21 21 22 22 23 23 23 23 23 22 21 21 20
21 20 20 20 20 21 21 21 21 20 20 20 20 20 21 21 21 21 21 21 21 21 20 20 20 20 20 20 19 19 20 20 21 21 22 22 22 22 22 20 20 20 20
20 20 20 20 20 21 21 21 20 20 19 20 20 20 20 20 20 20 20 20 19 20 20 20 19 19 19 19 19 19 19 20 20 20 20 20 20 20 20 20 20 20 20
20 20 20 20 20 20 20 20 20 20 20 20 20 20 20 20 20 20 20 20 19 19 19 19 18 19 19 19 19 19 19 19 19 19 19 19 19 19 19 19 19 19 19
19 19 19 19 19 19 19 19 19 19 19 20 20 20 20 20 20 20 20 19 19 19 19 19 19 19 19 19 20 20 19 19 19 19 18 18 18 19 19 19 19 18 17
19 19 19 19 19 19 19 19 19 19 19 19 20 20 20 20 20 20 20 20 20 19 19 19 19 19 19 19 19 19 19 19 18 18 17 17 17 17 18 18 17 16 15
19 19 19 19 19 19 19 19 19 19 19 19 20 20 20 20 20 20 21 21 20 20 20 20 20 20 19 19 19 19 18 18 18 18 17 17 16 16 16 16 15 15 14
20 20 20 20 20 20 19 19 19 19 19 19 20 19 19 19 19 19 19 19 19 19 19 18 18 18 19 19 19 19 18 18 18 17 16 16 16 15 14 13 13 13 13
21 21 20 20 20 19 19 18 18 18 18 18 18 18 18 18 18 18 18 18 18 18 18 18 17 17 17 17 18 18 17 17 17 17 16 15 15 14 13 13 12 12 12
21 20 20 19 19 18 18 17 17 17 17 17 17 17 17 17 17 17 16 16 17 17 17 17 17 17 16 16 16 16 16 15 15 15 15 14 14 14 13 12 12 12 11
20 20 19 18 18 17 17 16 16 16 15 15 16 16 16 16 16 16 15 16 16 16 16 16 15 15 15 15 15 15 15 14 14 14 14 13 13 13 13 12 12 12 11
19 19 18 18 18 17 17 16 15 15 15 15 15 15 15 15 15 14 14 14 14 14 14 14 14 14 14 15 15 15 14 14 14 13 13 13 12 12 12 12 12 11 11
19 19 18 18 17 17 16 16 15 15 15 15 15 15 15 14 14 14 13 13 13 13 13 13 13 14 14 14 14 14 14 14 13 13 13 13 12 12 12 12 12 12 11
Wind_Direction
274 276 278 277 276 276 276 276 275 275 276 277 276 276 275 275 275 275 274 274 273 271 271 270 269 267 267 266 265 265 266 266 265 263 262 260 259 258 257 258 260 262 263
275 277 277 277 277 277 277 277 277 276 275 276 276 276 276 275 275 276 276 274 274 272 271 271 270 268 266 266 265 265 265 265 264 263 261 260 259 259 258 260 262 263 264
277 277 278 279 279 279 278 278 277 276 276 276 275 275 276 276 275 277 277 276 275 274 274 272 271 270 268 266 266 266 265 265 264 262 260 260 261 261 261 261 262 263 264
278 278 279 280 281 281 280 279 278 277 276 275 275 275 276 277 277 277 277 277 277 276 275 273 271 270 269 267 266 266 266 265 264 262 261 262 262 263 263 262 263 264 264
277 278 279 280 281 282 281 279 278 277 276 276 276 276 276 277 277 277 277 277 277 276 275 273 272 271 268 267 267 268 267 266 264 262 262 263 263 264 264 263 263 263 264
278 278 279 279 280 281 281 279 277 275 275 275 276 276 276 276 277 276 276 277 277 276 275 273 272 271 268 268 269 268 268 266 264 262 263 263 263 264 264 263 263 262 263
278 277 278 279 280 281 281 280 277 275 275 275 276 277 276 277 277 276 277 278 278 278 275 274 273 272 268 268 268 268 267 266 266 265 264 264 264 263 264 264 263 262 262
280 279 279 280 281 281 280 280 278 277 276 275 275 276 278 278 278 277 278 278 278 278 276 275 273 272 270 269 268 268 268 268 267 265 264 264 264 264 265 265 264 264 264
280 279 279 280 281 282 281 280 279 278 276 275 275 276 277 278 278 278 278 278 278 277 276 275 274 273 270 268 267 267 266 266 265 263 261 263 264 265 265 265 267 266 265
281 280 280 280 280 281 281 281 280 279 278 276 276 276 277 278 277 278 278 279 278 277 277 275 274 273 271 268 266 264 263 263 263 261 261 263 264 266 267 267 267 268 266
285 283 282 281 280 280 281 280 280 279 278 277 275 276 277 277 276 278 280 281 280 278 277 274 272 270 269 266 264 263 262 262 262 262 263 264 266 268 268 267 266 267 267
289 286 285 282 282 283 282 281 279 277 278 277 275 275 278 278 277 278 280 282 282 279 276 273 270 268 267 264 264 264 263 264 263 263 264 264 267 268 268 268 267 268 267
291 289 289 286 285 284 282 280 279 277 276 277 276 277 280 280 279 279 281 281 281 278 274 271 269 266 264 263 263 262 263 264 265 266 268 267 269 270 270 270 270 268 267
292 291 291 291 289 286 283 281 280 278 276 276 279 279 280 280 279 279 280 281 280 276 272 268 266 264 262 262 262 261 263 266 268 268 269 269 270 271 271 271 269 268 269
291 290 291 292 291 289 287 285 283 281 278 277 279 282 281 280 280 281 281 281 279 276 272 269 266 263 261 260 260 259 262 264 266 268 270 270 269 270 269 269 268 267 267
289 289 291 291 291 290 289 287 285 282 281 279 280 282 285 284 281 280 281 281 279 274 271 268 267 264 260 259 260 261 263 266 269 271 272 271 270 269 267 268 269 268 269
290 289 290 290 291 291 289 288 286 283 283 282 282 284 286 285 280 279 280 279 277 274 272 270 269 267 263 260 260 263 264 266 269 272 272 271 268 267 267 268 269 269 272
294 292 291 290 291 291 290 289 287 284 283 282 282 284 286 287 283 279 279 278 276 274 273 271 270 269 267 263 263 264 265 266 268 270 272 271 269 268 269 270 270 270 271
295 292 291 290 291 291 291 290 289 287 285 283 283 284 286 286 284 281 279 277 275 273 272 272 271 270 267 263 262 262 264 265 267 269 269 269 267 265 267 268 267 267 267
297 295 294 293 292 291 290 290 290 289 287 287 287 287 286 285 284 281 279 276 273 272 271 270 269 268 265 262 261 262 263 264 266 266 267 266 266 267 265 262 261 263 264
298 296 294 293 292 291 291 290 290 291 289 289 287 287 287 286 285 283 278 275 272 270 269 268 267 266 263 260 260 261 261 262 263 265 264 263 263 264 262 259 256 256 256
296 295 293 292 292 291 291 291 291 291 292 291 289 289 289 289 288 285 281 277 273 270 268 266 264 263 261 260 259 259 260 260 260 261 259 258 257 259 258 255 250 247 248
294 293 292 292 290 290 291 292 292 293 293 293 291 290 291 292 291 287 283 278 273 269 266 265 265 263 262 260 259 258 258 258 257 257 256 256 254 253 251 248 246 245 245
294 294 292 291 290 289 290 291 292 293 294 294 294 293 294 294 293 290 286 281 275 271 268 265 264 262 261 259 258 257 257 256 255 255 254 252 250 248 245 244 244 244 244
295 293 291 290 289 288 288 288 289 290 292 294 294 295 295 296 295 292 288 284 278 272 269 265 262 260 259 259 257 255 254 254 254 252 250 248 246 244 242 241 240 238 238
294 293 290 288 287 286 285 285 286 288 289 291 293 295 295 294 294 293 289 284 279 273 268 264 261 259 258 256 255 253 251 250 250 247 245 243 242 240 237 236 237 236 235
Height
5610 5608 5606 5604 5601 5599 5598 5596 5594 5592 5590 5588 5586 5584 5583 5581 5580 5578 5577 5577 5576 5575 5575 5574 5574 5573 5573 5572 5572 5572 5572 5572 5573 5574 5574 5575 5577 5579 5581 5583 5584 5586 5588
5598 5596 5594 5592 5590 5588 5586 5585 5583 5581 5579 5577 5575 5574 5572 5571 5570 5568 5567 5566 5565 5564 5563 5563 5562 5561 5561 5560 5560 5560 5560 5560 5561 5562 5563 5564 5565 5567 5569 5570 5572 5573 5574
5587 5585 5583 5581 5579 5577 5576 5574 5572 5570 5569 5567 5565 5564 5562 5561 5560 5558 5557 5555 5554 5553 5552 5551 5550 5550 5549 5549 5549 5549 5549 5549 5549 5550 5551 5552 5553 5555 5556 5558 5559 5560 5561
5577 5575 5573 5571 5569 5567 5565 5563 5562 5560 5558 5557 5555 5554 5552 5551 5549 5548 5547 5545 5544 5543 5541 5540 5540 5539 5539 5538 5538 5538 5537 5537 5537 5538 5540 5541 5542 5543 5544 5545 5546 5547 5549
5567 5565 5563 5561 5559 5557 5555 5553 5552 5550 5548 5547 5546 5544 5542 5541 5540 5538 5537 5536 5535 5534 5532 5531 5530 5529 5529 5528 5528 5527 5527 5526 5526 5527 5529 5530 5531 5532 5533 5533 5534 5535 5536
5557 5555 5553 5551 5549 5547 5545 5544 5542 5540 5539 5537 5536 5535 5533 5532 5530 5529 5528 5527 5525 5524 5523 5522 5521 5520 5520 5519 5518 5518 5517 5516 5516 5517 5518 5519 5520 5521 5521 5522 5522 5524 5525
5547 5545 5543 5541 5539 5537 5536 5534 5532 5531 5530 5528 5527 5526 5525 5523 5522 5520 5519 5518 5516 5515 5514 5513 5512 5511 5510 5510 5509 5509 5508 5508 5508 5508 5509 5509 5510 5511 5512 5512 5512 5512 5514
5538 5536 5534 5532 5530 5528 5527 5525 5524 5522 5521 5520 5519 5518 5517 5515 5514 5512 5511 5509 5508 5506 5505 5504 5503 5502 5502 5501 5501 5500 5500 5500 5500 5500 5501 5501 5501 5502 5502 5503 5503 5504 5505
5530 5528 5526 5524 5522 5520 5518 5517 5515 5514 5513 5512 5511 5510 5509 5507 5506 5504 5503 5501 5500 5498 5497 5496 5495 5494 5493 5492 5492 5493 5493 5493 5492 5493 5493 5493 5494 5494 5494 5495 5495 5495 5497
5522 5520 5518 5516 5514 5512 5510 5509 5507 5506 5505 5504 5503 5502 5501 5499 5498 5496 5495 5494 5492 5491 5490 5488 5487 5486 5485 5484 5484 5485 5486 5486 5485 5486 5486 5487 5487 5487 5487 5487 5487 5488 5488
5514 5512 5510 5508 5506 5505 5503 5502 5500 5498 5497 5496 5495 5494 5493 5491 5490 5489 5487 5486 5484 5483 5482 5481 5480 5479 5478 5477 5477 5478 5478 5478 5479 5479 5480 5480 5480 5480 5480 5480 5480 5480 5480
5508 5506 5504 5502 5500 5498 5496 5494 5493 5491 5490 5489 5488 5487 5485 5484 5482 5481 5479 5478 5476 5475 5474 5473 5472 5472 5471 5471 5471 5472 5472 5472 5473 5474 5474 5474 5474 5474 5474 5473 5473 5472 5473
5502 5499 5497 5495 5493 5491 5489 5488 5486 5485 5483 5482 5481 5480 5479 5477 5475 5474 5472 5470 5469 5468 5467 5466 5466 5465 5465 5465 5466 5466 5466 5467 5468 5468 5468 5469 5468 5468 5467 5467 5466 5466 5466
5496 5494 5492 5489 5487 5485 5483 5482 5480 5478 5477 5476 5475 5474 5472 5470 5469 5467 5465 5463 5462 5461 5460 5460 5459 5459 5460 5460 5461 5461 5461 5462 5462 5462 5462 5462 5462 5462 5462 5461 5461 5461 5461
5490 5488 5486 5484 5482 5480 5478 5476 5474 5472 5471 5470 5469 5467 5466 5464 5462 5460 5459 5457 5456 5455 5454 5454 5454 5454 5455 5455 5456 5456 5456 5456 5456 5456 5456 5456 5456 5456 5456 5456 5456 5455 5455
5485 5483 5481 5478 5476 5474 5472 5470 5468 5466 5465 5463 5462 5461 5459 5458 5456 5455 5453 5451 5450 5449 5449 5449 5449 5449 5449 5450 5450 5451 5451 5451 5451 5451 5450 5450 5450 5450 5450 5450 5450 5450 5450
5479 5477 5475 5473 5471 5469 5467 5465 5463 5461 5459 5458 5456 5455 5453 5451 5450 5449 5447 5446 5445 5444 5444 5444 5444 5444 5444 5445 5445 5446 5446 5446 5446 5445 5445 5445 5445 5445 5445 5445 5445 5445 5445
5473 5471 5469 5467 5465 5463 5461 5459 5457 5455 5454 5452 5450 5449 5447 5445 5444 5443 5442 5440 5440 5439 5439 5439 5439 5439 5439 5439 5440 5440 5440 5440 5440 5440 5440 5440 5440 5440 5440 5440 5440 5440 5440
5468 5466 5464 5462 5460 5458 5456 5454 5452 5450 5448 5447 5445 5443 5441 5439 5437 5436 5435 5434 5434 5434 5434 5433 5433 5433 5434 5434 5434 5435 5435 5435 5435 5435 5435 5435 5435 5435 5435 5435 5435 5435 5435
5463 5460 5458 5456 5454 5452 5450 5448 5446 5444 5443 5441 5439 5437 5435 5433 5432 5430 5429 5428 5428 5428 5428 5428 5428 5428 5428 5428 5429 5429 5429 5430 5430 5430 5430 5430 5430 5430 5430 5430 5431 5431 5431
5457 5455 5452 5450 5448 5446 5444 5442 5440 5438 5437 5435 5433 5431 5429 5428 5426 5425 5424 5423 5422 5422 5422 5422 5422 5422 5422 5422 5423 5424 5424 5424 5425 5425 5425 5426 5426 5426 5426 5427 5427 5427 5428
5451 5449 5446 5444 5442 5440 5438 5436 5434 5433 5431 5429 5427 5426 5424 5422 5421 5419 5418 5417 5417 5417 5417 5417 5417 5417 5417 5417 5418 5418 5419 5419 5420 5420 5420 5421 5421 5422 5422 5423 5423 5424 5425
5445 5443 5440 5438 5436 5434 5432 5430 5429 5427 5426 5424 5422 5421 5419 5417 5415 5414 5413 5412 5411 5411 5411 5411 5411 5411 5412 5412 5412 5413 5413 5414 5414 5415 5416 5416 5417 5418 5418 5419 5420 5421 5422
5439 5437 5434 5432 5430 5429 5427 5425 5424 5422 5421 5419 5418 5416 5414 5412 5411 5409 5408 5407 5406 5406 5406 5406 5406 5406 5407 5407 5407 5408 5408 5409 5410 5410 5411 5412 5413 5414 5415 5416 5417 5418 5419
5433 5431 5429 5427 5425 5424 5422 5421 5419 5418 5416 5415 5413 5411 5410 5408 5406 5405 5403 5402 5402 5401 5401 5401 5401 5402 5402 5402 5403 5403 5404 5405 5406 5406 5407 5408 5409 5410 5411 5412 5414 5415 5416
5427 5425 5423 5422 5420 5419 5417 5416 5414 5413 5412 5410 5409 5407 5405 5404 5402 5401 5399 5398 5397 5397 5397 5397 5397 5397 5397 5398 5398 5399 5400 5401 5401 5402 5403 5405 5406 5407 5408 5409 5411 5412 5413